FW4361 Weather Reports


Display with metric or nautical units.
time (UTC)temp
F
wind
direction
speed
MPH
gust
MPH
rain 1hr
in
rain 24hr
in
rain mn
in
humidity
%
barometer
mb
20260505001554 46 263 7.0 17.0 0.00 0.77 0.13 80 1009.4
20260505000106 47 229 7.0 21.0 0.00 0.77 0.13 79 1009.1
20260504234552 47 238 8.0 24.0 0.00 0.92 0.13 78 1008.7
20260504233055 47 182 9.0 22.0 0.00 0.92 0.13 78 1008.2
20260504231550 47 215 13.0 30.0 0.00 0.92 0.13 78 1007.8
20260504230104 48 196 11.0 23.0 0.00 0.92 0.13 78 1007.8
20260504224552 49 176 11.0 27.0 0.00 0.93 0.13 77 1007.6
20260504223049 49 191 10.0 20.0 0.00 0.93 0.13 77 1007.4
20260504221557 49 227 12.0 24.0 0.00 0.93 0.13 77 1007.6
20260504220055 50 224 10.0 26.0 0.00 0.93 0.13 76 1007.3
20260504214548 51 229 9.0 23.0 0.00 0.93 0.13 75 1007.5
20260504213046 50 197 9.0 21.0 0.00 0.93 0.13 77 1007.5
20260504211550 50 180 11.0 23.0 0.00 0.93 0.13 77 1007.5
20260504210051 50 164 10.0 22.0 0.00 0.93 0.13 77 1007.7
20260504204549 50 205 10.0 27.0 0.00 0.96 0.13 77 1007.7
20260504203101 49 196 10.0 22.0 0.00 0.96 0.13 78 1007.9
20260504201554 50 154 9.0 22.0 0.00 0.96 0.13 78 1008.0
20260504200053 51 156 6.0 16.0 0.00 0.96 0.13 76 1008.1
20260504194552 51 219 8.0 24.0 0.00 1.08 0.13 75 1007.8
20260504193049 52 212 12.0 22.0 0.00 1.08 0.13 73 1007.6
20260504191600 53 209 8.0 22.0 0.00 1.08 0.13 72 1007.5
20260504190046 53 218 12.0 20.0 0.00 1.08 0.13 73 1007.4
20260504184550 53 213 11.0 23.0 0.00 1.20 0.13 72 1007.4
20260504183047 52 207 10.0 21.0 0.00 1.20 0.13 73 1007.4
20260504181555 53 201 9.0 24.0 0.00 1.20 0.13 71 1007.5
20260504180050 52 235 9.0 22.0 0.00 1.20 0.13 71 1007.5
20260504174550 53 214 7.0 18.0 0.00 1.29 0.13 71 1007.5
20260504173055 53 229 7.0 18.0 0.00 1.29 0.13 71 1007.4
20260504171551 54 172 7.0 19.0 0.00 1.29 0.13 68 1007.6
20260504081550 40 250 7.0 19.0 0.00 2.11 0.13 80 1004.3
20260504050105 41 290 10.0 23.0 0.02 2.11 0.13 91 1001.6
20260504044552 41 221 14.0 29.0 0.03 2.11 0.13 92 1001.3
20260504043055 41 278 11.0 24.0 0.06 2.11 0.13 93 1001.4
20260504041549 41 289 11.0 24.0 0.09 2.10 0.12 93 1001.3
20260504040054 41 259 12.0 23.0 0.11 2.08 0.11 94 1001.0
20260504034549 41 246 9.0 27.0 0.12 2.07 0.09 94 1000.9
20260504033052 40 225 10.0 23.0 0.14 2.04 0.07 94 1000.8
20260504031550 40 327 12.0 27.0 0.14 2.00 0.03 94 1000.5
20260504030052 40 339 9.0 23.0 0.15 1.97 0.00 94 1000.2
20260504024607 40 269 11.0 19.0 0.17 1.94 1.94 94 999.8
20260504023053 40 356 11.0 22.0 0.18 1.90 1.90 94 999.6
20260504021550 40 301 10.0 21.0 0.19 1.86 1.86 94 999.3
20260504020047 39 352 11.0 26.0 0.21 1.81 1.81 94 999.3
20260504014548 39 272 7.0 25.0 0.24 1.77 1.77 94 999.0
20260504013045 39 310 8.0 20.0 0.25 1.72 1.72 94 998.8
20260504011551 39 280 11.0 25.0 0.26 1.66 1.66 95 998.5
20260504010055 39 290 8.0 23.0 0.27 1.60 1.60 95 998.2
20260504004549 39 322 8.0 19.0 0.25 1.52 1.52 95 998.0
20260504003053 38 291 9.0 24.0 0.23 1.46 1.46 95 997.9